User: anonymous   Login
Location: Unspecified
(0.0000°N, 0.0000°E)
Time: 20:56:57
(UTC+00:00)
Language:

Tandem-X - Orbit

View from above orbital plane
View from above orbital plane
View from above satellite
View from above satellite

Ground track
Ground track

The orbit data is extracted from the following two-line orbital elements,

1 36605U 10030A   21341.51248260 -.00000396  00000-0 -15688-4 0  9995
2 36605  97.4442 346.8589 0001844  90.8260  27.2035 15.19147489635728
Epoch (UTC): 07 December 2021 12:17:58
Eccentricity: 0.0001844
inclination: 97.4442°
perigee height: 507 km
apogee height: 509 km
right ascension of ascending node: 346.8589°
argument of perigee: 90.8260°
revolutions per day: 15.19147489
mean anomaly at epoch: 27.2035°
orbit number at epoch: 63572

The dashed part of the orbit path shows where the satellite is in the earth's shadow,  

DLR